QPF
0.09 0.06 0.06 0.05 0.03 0.02 0.02 0.03 0.02 0.02 0.01 0.01 0.00 0.00 0.00 0.00 0.00 0.00 0.00 0.00 0.00 0.00 0.01 0.01 0.02 0.03 0.03 0.02 0.02 0.01 0.01 0.01 0.01 0.01 0.01 0.01 0.01 0.01 0.02 0.02 0.02 0.02 0.03
0.17 0.13 0.09 0.08 0.06 0.04 0.03 0.03 0.03 0.03 0.02 0.01 0.01 0.00 0.00 0.00 0.00 0.00 0.00 0.00 0.00 0.00 0.00 0.01 0.03 0.03 0.02 0.02 0.01 0.01 0.01 0.01 0.01 0.01 0.01 0.01 0.01 0.02 0.02 0.02 0.01 0.02 0.02
0.21 0.19 0.16 0.13 0.10 0.07 0.06 0.05 0.04 0.04 0.03 0.02 0.01 0.01 0.01 0.00 0.00 0.00 0.00 0.00 0.00 0.00 0.00 0.01 0.02 0.02 0.02 0.01 0.01 0.00 0.00 0.00 0.00 0.00 0.01 0.00 0.00 0.00 0.01 0.01 0.01 0.01 0.01
0.20 0.20 0.18 0.17 0.12 0.07 0.07 0.07 0.05 0.04 0.04 0.02 0.02 0.01 0.01 0.01 0.00 0.00 0.00 0.00 0.00 0.00 0.00 0.01 0.00 0.00 0.01 0.00 0.00 0.00 0.00 0.00 0.00 0.00 0.00 0.00 0.00 0.00 0.00 0.00 0.01 0.01 0.01
0.16 0.20 0.17 0.15 0.13 0.09 0.07 0.06 0.05 0.04 0.04 0.04 0.03 0.02 0.01 0.01 0.01 0.00 0.00 0.00 0.00 0.00 0.00 0.00 0.00 0.00 0.00 0.00 0.00 0.00 0.00 0.00 0.00 0.00 0.00 0.00 0.00 0.00 0.00 0.00 0.00 0.00 0.01
0.11 0.14 0.17 0.15 0.13 0.11 0.08 0.05 0.05 0.05 0.04 0.04 0.03 0.01 0.01 0.01 0.01 0.00 0.00 0.00 0.00 0.00 0.00 0.00 0.00 0.00 0.00 0.00 0.00 0.00 0.00 0.00 0.00 0.00 0.00 0.00 0.00 0.00 0.00 0.00 0.00 0.00 0.00
0.07 0.09 0.11 0.14 0.16 0.14 0.10 0.06 0.03 0.04 0.04 0.04 0.03 0.02 0.02 0.01 0.01 0.01 0.00 0.00 0.00 0.00 0.00 0.00 0.00 0.00 0.00 0.00 0.00 0.00 0.00 0.00 0.00 0.00 0.00 0.00 0.00 0.00 0.00 0.00 0.00 0.00 0.00
0.04 0.06 0.08 0.12 0.15 0.15 0.12 0.10 0.06 0.04 0.03 0.03 0.03 0.04 0.03 0.03 0.02 0.02 0.01 0.01 0.00 0.00 0.00 0.00 0.00 0.00 0.00 0.00 0.00 0.00 0.00 0.00 0.00 0.00 0.00 0.00 0.00 0.00 0.00 0.00 0.01 0.00 0.00
0.03 0.04 0.07 0.09 0.14 0.17 0.16 0.13 0.08 0.05 0.03 0.03 0.03 0.03 0.04 0.04 0.04 0.03 0.02 0.01 0.01 0.01 0.00 0.00 0.00 0.00 0.00 0.00 0.00 0.00 0.00 0.00 0.00 0.00 0.00 0.00 0.00 0.00 0.00 0.01 0.01 0.01 0.01
0.03 0.04 0.05 0.07 0.10 0.14 0.15 0.13 0.10 0.07 0.04 0.04 0.04 0.04 0.04 0.04 0.03 0.03 0.02 0.02 0.01 0.01 0.00 0.00 0.00 0.00 0.00 0.00 0.00 0.00 0.00 0.00 0.00 0.00 0.00 0.00 0.00 0.00 0.00 0.01 0.01 0.01 0.01
0.03 0.04 0.06 0.06 0.07 0.09 0.12 0.14 0.11 0.08 0.05 0.04 0.03 0.03 0.04 0.03 0.02 0.02 0.02 0.01 0.01 0.01 0.00 0.00 0.00 0.00 0.00 0.00 0.00 0.00 0.00 0.00 0.00 0.00 0.00 0.00 0.00 0.00 0.00 0.00 0.01 0.01 0.01
0.03 0.04 0.05 0.07 0.08 0.10 0.12 0.14 0.14 0.10 0.07 0.05 0.04 0.03 0.02 0.02 0.02 0.01 0.01 0.01 0.01 0.01 0.01 0.01 0.00 0.00 0.00 0.00 0.00 0.00 0.00 0.00 0.00 0.00 0.00 0.00 0.00 0.00 0.00 0.00 0.00 0.00 0.01
0.02 0.03 0.04 0.05 0.06 0.08 0.10 0.11 0.13 0.11 0.08 0.06 0.05 0.04 0.03 0.02 0.01 0.01 0.01 0.01 0.02 0.01 0.01 0.01 0.01 0.01 0.00 0.00 0.00 0.00 0.00 0.00 0.00 0.00 0.00 0.00 0.00 0.00 0.00 0.00 0.00 0.00 0.00
0.03 0.02 0.03 0.04 0.04 0.04 0.06 0.08 0.09 0.10 0.08 0.06 0.05 0.04 0.03 0.03 0.02 0.02 0.02 0.03 0.04 0.04 0.03 0.02 0.02 0.02 0.02 0.01 0.01 0.00 0.00 0.00 0.00 0.00 0.00 0.00 0.00 0.00 0.00 0.00 0.00 0.00 0.00
0.03 0.03 0.02 0.03 0.03 0.03 0.04 0.06 0.08 0.08 0.08 0.07 0.06 0.05 0.04 0.04 0.03 0.03 0.03 0.04 0.04 0.05 0.04 0.03 0.03 0.03 0.02 0.02 0.01 0.01 0.00 0.00 0.00 0.00 0.00 0.00 0.00 0.00 0.00 0.00 0.00 0.00 0.00
0.03 0.02 0.02 0.02 0.02 0.02 0.02 0.03 0.05 0.06 0.06 0.05 0.05 0.04 0.03 0.03 0.02 0.02 0.02 0.03 0.03 0.04 0.04 0.03 0.03 0.02 0.02 0.01 0.01 0.01 0.00 0.00 0.00 0.00 0.00 0.00 0.00 0.00 0.00 0.00 0.00 0.00 0.00
0.02 0.02 0.02 0.01 0.01 0.01 0.02 0.02 0.02 0.04 0.04 0.04 0.04 0.03 0.03 0.02 0.02 0.02 0.02 0.02 0.03 0.03 0.03 0.02 0.02 0.01 0.01 0.01 0.00 0.00 0.00 0.00 0.00 0.00 0.00 0.00 0.00 0.00 0.00 0.00 0.00 0.00 0.00
0.03 0.02 0.02 0.01 0.01 0.01 0.02 0.02 0.02 0.02 0.02 0.03 0.03 0.02 0.02 0.02 0.01 0.01 0.01 0.02 0.02 0.02 0.02 0.02 0.02 0.01 0.01 0.01 0.00 0.00 0.00 0.00 0.00 0.00 0.00 0.00 0.00 0.00 0.00 0.00 0.00 0.00 0.00
0.02 0.02 0.02 0.01 0.01 0.01 0.02 0.03 0.02 0.02 0.02 0.02 0.02 0.02 0.01 0.01 0.01 0.01 0.01 0.01 0.01 0.02 0.02 0.02 0.02 0.02 0.01 0.01 0.01 0.01 0.01 0.00 0.00 0.00 0.00 0.00 0.00 0.00 0.00 0.00 0.00 0.00 0.00
0.01 0.01 0.01 0.01 0.01 0.00 0.01 0.02 0.02 0.02 0.02 0.01 0.01 0.01 0.01 0.01 0.01 0.01 0.01 0.01 0.01 0.01 0.02 0.02 0.02 0.02 0.02 0.01 0.01 0.01 0.01 0.01 0.01 0.00 0.00 0.00 0.00 0.00 0.00 0.00 0.00 0.00 0.00
0.01 0.00 0.00 0.00 0.00 0.00 0.00 0.01 0.01 0.02 0.02 0.02 0.01 0.01 0.01 0.01 0.01 0.01 0.01 0.01 0.01 0.01 0.01 0.02 0.02 0.02 0.02 0.01 0.01 0.01 0.01 0.01 0.01 0.01 0.00 0.00 0.00 0.00 0.00 0.00 0.00 0.00 0.00
0.00 0.01 0.00 0.00 0.00 0.00 0.00 0.00 0.00 0.01 0.01 0.01 0.01 0.01 0.01 0.01 0.01 0.01 0.01 0.01 0.01 0.01 0.01 0.01 0.01 0.01 0.01 0.01 0.01 0.01 0.00 0.01 0.01 0.00 0.00 0.00 0.00 0.00 0.00 0.00 0.00 0.00 0.00
0.00 0.00 0.00 0.00 0.00 0.00 0.00 0.00 0.00 0.00 0.01 0.01 0.01 0.01 0.01 0.01 0.01 0.00 0.00 0.00 0.00 0.00 0.00 0.00 0.01 0.01 0.01 0.01 0.01 0.01 0.01 0.01 0.00 0.00 0.00 0.00 0.00 0.00 0.00 0.00 0.01 0.01 0.01
0.00 0.00 0.00 0.01 0.01 0.00 0.00 0.01 0.01 0.01 0.01 0.01 0.00 0.01 0.01 0.01 0.00 0.00 0.00 0.00 0.00 0.00 0.00 0.00 0.00 0.00 0.00 0.01 0.01 0.01 0.01 0.01 0.01 0.00 0.00 0.00 0.00 0.00 0.00 0.00 0.00 0.00 0.00
0.00 0.00 0.01 0.01 0.01 0.01 0.01 0.01 0.01 0.01 0.01 0.01 0.00 0.00 0.01 0.01 0.01 0.00 0.00 0.00 0.00 0.00 0.00 0.00 0.00 0.00 0.01 0.01 0.02 0.02 0.02 0.02 0.02 0.01 0.01 0.01 0.01 0.00 0.00 0.00 0.00 0.00 0.00
0.01 0.01 0.01 0.01 0.01 0.01 0.01 0.01 0.01 0.01 0.01 0.01 0.01 0.00 0.00 0.00 0.00 0.00 0.00 0.00 0.00 0.00 0.00 0.00 0.00 0.00 0.00 0.01 0.01 0.01 0.02 0.02 0.02 0.02 0.01 0.01 0.01 0.02 0.02 0.00 0.00 0.00 0.00
MSLP
1017.66 1018.04 1018.31 1018.50 1018.62 1018.71 1018.79 1018.87 1018.96 1019.07 1019.19 1019.32 1019.47 1019.63 1019.80 1019.98 1020.15 1020.29 1020.38 1020.41 1020.37 1020.26 1020.11 1019.94 1019.80 1019.72 1019.73 1019.84 1020.04 1020.31 1020.61 1020.90 1021.16 1021.36 1021.51 1021.60 1021.66 1021.70 1021.74 1021.77 1021.79 1021.80 1021.79
1017.47 1017.88 1018.21 1018.45 1018.64 1018.79 1018.92 1019.04 1019.17 1019.30 1019.44 1019.59 1019.76 1019.94 1020.14 1020.35 1020.54 1020.71 1020.82 1020.87 1020.85 1020.76 1020.63 1020.48 1020.35 1020.28 1020.29 1020.39 1020.58 1020.82 1021.09 1021.35 1021.57 1021.74 1021.86 1021.93 1021.97 1022.00 1022.03 1022.06 1022.10 1022.12 1022.12
1017.24 1017.68 1018.06 1018.37 1018.63 1018.86 1019.06 1019.24 1019.42 1019.59 1019.75 1019.92 1020.10 1020.29 1020.49 1020.70 1020.90 1021.07 1021.20 1021.27 1021.27 1021.21 1021.11 1020.99 1020.90 1020.85 1020.87 1020.97 1021.13 1021.34 1021.56 1021.77 1021.94 1022.06 1022.14 1022.18 1022.20 1022.22 1022.24 1022.28 1022.32 1022.35 1022.38
1017.00 1017.46 1017.88 1018.26 1018.61 1018.92 1019.20 1019.45 1019.69 1019.90 1020.09 1020.27 1020.45 1020.63 1020.82 1021.01 1021.20 1021.36 1021.49 1021.57 1021.60 1021.58 1021.52 1021.46 1021.41 1021.40 1021.44 1021.53 1021.67 1021.84 1022.01 1022.15 1022.26 1022.32 1022.34 1022.35 1022.34 1022.34 1022.35 1022.39 1022.43 1022.47 1022.51
1016.79 1017.26 1017.72 1018.15 1018.57 1018.96 1019.32 1019.64 1019.93 1020.18 1020.40 1020.60 1020.77 1020.94 1021.10 1021.26 1021.42 1021.57 1021.69 1021.78 1021.84 1021.86 1021.86 1021.85 1021.86 1021.89 1021.95 1022.05 1022.17 1022.29 1022.40 1022.48 1022.52 1022.52 1022.48 1022.44 1022.40 1022.38 1022.37 1022.39 1022.42 1022.46 1022.48
1016.67 1017.12 1017.59 1018.05 1018.52 1018.97 1019.39 1019.77 1020.11 1020.40 1020.65 1020.85 1021.02 1021.17 1021.31 1021.44 1021.58 1021.71 1021.82 1021.92 1022.01 1022.07 1022.12 1022.18 1022.24 1022.31 1022.40 1022.50 1022.60 1022.68 1022.74 1022.75 1022.73 1022.67 1022.58 1022.49 1022.41 1022.35 1022.32 1022.31 1022.31 1022.32 1022.32
1016.64 1017.06 1017.51 1017.99 1018.47 1018.95 1019.41 1019.84 1020.21 1020.53 1020.79 1021.00 1021.18 1021.32 1021.44 1021.56 1021.68 1021.79 1021.91 1022.02 1022.13 1022.23 1022.34 1022.44 1022.55 1022.66 1022.77 1022.88 1022.96 1023.01 1023.02 1022.98 1022.90 1022.79 1022.66 1022.52 1022.40 1022.31 1022.23 1022.18 1022.14 1022.10 1022.06
1016.72 1017.09 1017.51 1017.96 1018.44 1018.92 1019.39 1019.83 1020.22 1020.56 1020.84 1021.07 1021.25 1021.40 1021.52 1021.64 1021.75 1021.86 1021.98 1022.11 1022.24 1022.37 1022.51 1022.66 1022.80 1022.94 1023.07 1023.17 1023.24 1023.26 1023.24 1023.16 1023.05 1022.90 1022.73 1022.56 1022.41 1022.27 1022.15 1022.04 1021.95 1021.86 1021.76
1016.89 1017.21 1017.58 1018.00 1018.44 1018.89 1019.35 1019.78 1020.17 1020.52 1020.82 1021.06 1021.27 1021.43 1021.57 1021.70 1021.82 1021.94 1022.07 1022.20 1022.35 1022.51 1022.67 1022.83 1022.99 1023.14 1023.27 1023.37 1023.43 1023.44 1023.40 1023.31 1023.17 1023.01 1022.82 1022.63 1022.45 1022.27 1022.11 1021.96 1021.81 1021.66 1021.51
1017.13 1017.40 1017.72 1018.08 1018.48 1018.88 1019.30 1019.71 1020.09 1020.44 1020.76 1021.03 1021.25 1021.45 1021.62 1021.77 1021.91 1022.05 1022.19 1022.33 1022.48 1022.64 1022.80 1022.97 1023.13 1023.28 1023.40 1023.49 1023.55 1023.55 1023.50 1023.41 1023.28 1023.11 1022.92 1022.73 1022.53 1022.33 1022.14 1021.95 1021.75 1021.55 1021.36
1017.37 1017.61 1017.89 1018.20 1018.53 1018.90 1019.27 1019.65 1020.02 1020.37 1020.69 1020.99 1021.25 1021.48 1021.69 1021.87 1022.04 1022.19 1022.34 1022.49 1022.63 1022.78 1022.93 1023.08 1023.22 1023.35 1023.46 1023.54 1023.59 1023.59 1023.55 1023.47 1023.35 1023.20 1023.03 1022.84 1022.64 1022.44 1022.22 1022.00 1021.78 1021.55 1021.32
1017.55 1017.78 1018.02 1018.30 1018.59 1018.91 1019.25 1019.60 1019.96 1020.31 1020.65 1020.97 1021.26 1021.53 1021.78 1021.99 1022.18 1022.36 1022.51 1022.66 1022.79 1022.92 1023.05 1023.17 1023.28 1023.38 1023.47 1023.53 1023.57 1023.58 1023.55 1023.49 1023.39 1023.27 1023.12 1022.95 1022.76 1022.55 1022.33 1022.10 1021.86 1021.61 1021.36
1017.60 1017.84 1018.08 1018.33 1018.61 1018.91 1019.23 1019.57 1019.92 1020.28 1020.63 1020.98 1021.30 1021.61 1021.88 1022.13 1022.35 1022.53 1022.69 1022.83 1022.96 1023.07 1023.16 1023.25 1023.33 1023.40 1023.46 1023.50 1023.52 1023.53 1023.51 1023.47 1023.39 1023.29 1023.17 1023.02 1022.84 1022.64 1022.42 1022.19 1021.94 1021.69 1021.44
1017.49 1017.75 1018.00 1018.27 1018.55 1018.85 1019.18 1019.52 1019.89 1020.26 1020.64 1021.01 1021.36 1021.69 1021.99 1022.26 1022.50 1022.70 1022.87 1023.01 1023.12 1023.21 1023.28 1023.34 1023.39 1023.43 1023.45 1023.47 1023.48 1023.48 1023.45 1023.42 1023.36 1023.27 1023.16 1023.02 1022.86 1022.66 1022.45 1022.22 1021.97 1021.73 1021.48
1017.20 1017.49 1017.78 1018.07 1018.38 1018.72 1019.07 1019.45 1019.84 1020.24 1020.64 1021.03 1021.41 1021.76 1022.09 1022.38 1022.63 1022.84 1023.02 1023.16 1023.28 1023.36 1023.42 1023.46 1023.48 1023.49 1023.48 1023.47 1023.46 1023.43 1023.40 1023.35 1023.29 1023.20 1023.10 1022.96 1022.79 1022.60 1022.38 1022.15 1021.91 1021.67 1021.43
1016.75 1017.08 1017.41 1017.76 1018.12 1018.50 1018.91 1019.32 1019.76 1020.19 1020.62 1021.04 1021.44 1021.81 1022.14 1022.45 1022.72 1022.95 1023.14 1023.30 1023.42 1023.51 1023.57 1023.60 1023.60 1023.59 1023.56 1023.52 1023.47 1023.41 1023.35 1023.28 1023.20 1023.10 1022.97 1022.82 1022.64 1022.44 1022.22 1021.97 1021.73 1021.48 1021.24
1016.22 1016.58 1016.96 1017.36 1017.79 1018.23 1018.69 1019.16 1019.64 1020.11 1020.57 1021.00 1021.42 1021.80 1022.15 1022.46 1022.74 1022.99 1023.21 1023.39 1023.53 1023.64 1023.71 1023.74 1023.74 1023.71 1023.66 1023.59 1023.50 1023.41 1023.31 1023.20 1023.08 1022.95 1022.80 1022.63 1022.43 1022.20 1021.96 1021.70 1021.44 1021.18 1020.93
1015.68 1016.08 1016.50 1016.96 1017.44 1017.94 1018.46 1018.98 1019.49 1020.00 1020.48 1020.92 1021.34 1021.73 1022.08 1022.41 1022.70 1022.97 1023.20 1023.41 1023.58 1023.72 1023.80 1023.85 1023.85 1023.81 1023.74 1023.64 1023.52 1023.39 1023.25 1023.10 1022.95 1022.78 1022.60 1022.39 1022.16 1021.92 1021.65 1021.37 1021.09 1020.80 1020.53
1015.23 1015.65 1016.11 1016.61 1017.13 1017.68 1018.24 1018.80 1019.34 1019.86 1020.35 1020.80 1021.22 1021.60 1021.95 1022.28 1022.58 1022.86 1023.12 1023.35 1023.55 1023.71 1023.82 1023.88 1023.89 1023.85 1023.76 1023.64 1023.49 1023.32 1023.15 1022.96 1022.77 1022.57 1022.36 1022.13 1021.88 1021.61 1021.32 1021.02 1020.71 1020.39 1020.09
1014.92 1015.36 1015.84 1016.36 1016.92 1017.49 1018.06 1018.64 1019.19 1019.71 1020.19 1020.64 1021.04 1021.41 1021.76 1022.08 1022.38 1022.67 1022.93 1023.18 1023.40 1023.58 1023.71 1023.78 1023.80 1023.75 1023.66 1023.52 1023.35 1023.16 1022.96 1022.76 1022.54 1022.33 1022.10 1021.86 1021.59 1021.31 1021.00 1020.67 1020.33 1019.99 1019.65
1014.78 1015.23 1015.72 1016.25 1016.80 1017.37 1017.95 1018.51 1019.05 1019.55 1020.02 1020.44 1020.83 1021.18 1021.51 1021.81 1022.10 1022.38 1022.65 1022.90 1023.12 1023.31 1023.44 1023.52 1023.54 1023.50 1023.41 1023.26 1023.09 1022.89 1022.68 1022.47 1022.25 1022.03 1021.81 1021.56 1021.30 1021.01 1020.69 1020.34 1019.98 1019.60 1019.23
1014.78 1015.23 1015.72 1016.24 1016.78 1017.32 1017.87 1018.41 1018.92 1019.40 1019.83 1020.23 1020.59 1020.92 1021.22 1021.51 1021.78 1022.04 1022.28 1022.52 1022.73 1022.90 1023.03 1023.11 1023.13 1023.09 1023.00 1022.86 1022.69 1022.50 1022.30 1022.09 1021.89 1021.69 1021.47 1021.24 1020.99 1020.71 1020.39 1020.03 1019.64 1019.24 1018.82
1014.85 1015.31 1015.79 1016.28 1016.79 1017.30 1017.81 1018.31 1018.78 1019.23 1019.64 1020.01 1020.34 1020.64 1020.92 1021.18 1021.42 1021.65 1021.86 1022.07 1022.25 1022.40 1022.51 1022.57 1022.58 1022.55 1022.46 1022.33 1022.18 1022.01 1021.83 1021.65 1021.47 1021.29 1021.10 1020.89 1020.65 1020.38 1020.06 1019.70 1019.30 1018.87 1018.42
1014.92 1015.37 1015.84 1016.31 1016.78 1017.26 1017.73 1018.19 1018.63 1019.04 1019.43 1019.78 1020.09 1020.38 1020.63 1020.86 1021.06 1021.25 1021.43 1021.58 1021.72 1021.83 1021.92 1021.96 1021.96 1021.92 1021.85 1021.74 1021.60 1021.46 1021.31 1021.16 1021.00 1020.85 1020.68 1020.49 1020.27 1020.01 1019.70 1019.33 1018.92 1018.47 1018.00
1014.88 1015.34 1015.79 1016.25 1016.69 1017.14 1017.58 1018.01 1018.43 1018.83 1019.21 1019.55 1019.86 1020.13 1020.37 1020.57 1020.74 1020.88 1021.01 1021.11 1021.20 1021.27 1021.32 1021.34 1021.33 1021.29 1021.22 1021.13 1021.02 1020.90 1020.78 1020.65 1020.51 1020.37 1020.22 1020.05 1019.84 1019.58 1019.27 1018.90 1018.48 1018.02 1017.52
1014.70 1015.16 1015.61 1016.06 1016.49 1016.92 1017.35 1017.77 1018.19 1018.60 1018.98 1019.33 1019.64 1019.91 1020.14 1020.32 1020.45 1020.56 1020.63 1020.69 1020.72 1020.75 1020.76 1020.76 1020.74 1020.70 1020.64 1020.56 1020.48 1020.37 1020.26 1020.15 1020.02 1019.89 1019.74 1019.56 1019.35 1019.09 1018.78 1018.41 1017.99 1017.52 1017.01
Thickness
5661 5662 5663 5663 5664 5664 5665 5665 5665 5665 5665 5664 5664 5664 5663 5662 5660 5657 5655 5654 5654 5654 5653 5653 5652 5651 5650 5648 5647 5645 5644 5642 5641 5640 5639 5639 5638 5637 5636 5636 5635 5635 5635
5655 5656 5656 5656 5657 5659 5659 5659 5660 5660 5659 5659 5658 5658 5657 5656 5654 5651 5649 5647 5647 5646 5646 5645 5644 5643 5642 5641 5639 5638 5636 5635 5634 5633 5632 5631 5630 5629 5628 5628 5627 5627 5627
5648 5649 5649 5649 5650 5651 5652 5653 5653 5653 5653 5652 5651 5651 5650 5649 5647 5645 5643 5641 5639 5638 5638 5637 5637 5635 5634 5633 5631 5630 5628 5627 5626 5625 5624 5623 5622 5621 5620 5620 5619 5619 5618
5640 5642 5642 5642 5643 5643 5645 5645 5646 5645 5644 5643 5643 5643 5642 5641 5640 5638 5636 5634 5632 5630 5629 5629 5628 5627 5625 5624 5623 5622 5620 5618 5617 5616 5615 5614 5613 5613 5612 5611 5611 5610 5610
5632 5634 5634 5634 5635 5635 5636 5638 5638 5638 5636 5635 5634 5634 5633 5633 5632 5631 5628 5626 5624 5623 5621 5620 5618 5617 5616 5615 5614 5613 5612 5610 5609 5607 5606 5605 5605 5604 5603 5603 5602 5602 5602
5624 5626 5627 5628 5628 5628 5628 5629 5629 5629 5628 5627 5627 5625 5624 5624 5623 5622 5620 5618 5617 5615 5613 5612 5610 5608 5607 5606 5605 5604 5603 5601 5600 5599 5597 5596 5596 5595 5594 5594 5594 5593 5593
5617 5618 5619 5620 5621 5620 5621 5621 5621 5620 5619 5619 5617 5614 5614 5615 5614 5613 5612 5610 5608 5607 5605 5604 5602 5600 5598 5596 5595 5594 5593 5592 5591 5589 5588 5587 5586 5586 5585 5585 5584 5584 5583
5609 5611 5612 5612 5613 5612 5612 5613 5613 5611 5610 5611 5609 5607 5603 5602 5603 5604 5603 5601 5600 5598 5597 5595 5593 5591 5589 5587 5585 5584 5582 5581 5581 5580 5579 5578 5577 5576 5576 5575 5575 5574 5574
5601 5603 5604 5605 5605 5605 5604 5604 5604 5604 5602 5602 5603 5602 5599 5597 5594 5593 5593 5592 5591 5589 5587 5586 5584 5582 5580 5578 5576 5574 5572 5571 5570 5569 5569 5568 5567 5566 5566 5565 5564 5564 5563
5593 5595 5596 5597 5597 5597 5596 5596 5596 5596 5595 5593 5593 5594 5593 5592 5588 5583 5582 5582 5582 5580 5578 5577 5575 5573 5570 5568 5566 5564 5562 5560 5559 5559 5558 5557 5556 5555 5555 5554 5553 5552 5552
5585 5587 5588 5588 5589 5588 5588 5587 5587 5587 5587 5586 5585 5584 5584 5583 5582 5577 5572 5571 5571 5570 5569 5567 5565 5563 5560 5558 5556 5553 5551 5550 5548 5547 5546 5545 5544 5543 5542 5542 5541 5540 5539
5577 5578 5580 5580 5580 5580 5580 5579 5579 5578 5578 5577 5576 5575 5573 5572 5570 5568 5565 5561 5559 5559 5559 5558 5555 5553 5550 5548 5545 5543 5541 5539 5537 5536 5535 5533 5532 5531 5529 5528 5528 5527 5526
5569 5570 5571 5571 5571 5572 5572 5571 5570 5568 5568 5567 5565 5564 5563 5562 5561 5559 5555 5551 5548 5547 5547 5546 5545 5543 5540 5537 5534 5532 5530 5527 5526 5524 5522 5521 5519 5517 5516 5515 5514 5513 5512
5563 5564 5564 5564 5564 5564 5563 5562 5560 5558 5557 5556 5555 5554 5552 5551 5550 5548 5545 5540 5536 5534 5534 5534 5533 5531 5529 5526 5523 5520 5518 5515 5513 5512 5510 5508 5506 5504 5502 5501 5499 5498 5497
5558 5557 5556 5556 5555 5555 5554 5553 5550 5548 5547 5545 5544 5543 5541 5539 5538 5536 5534 5532 5527 5522 5521 5521 5520 5519 5517 5514 5511 5508 5506 5503 5501 5499 5497 5495 5493 5491 5489 5487 5485 5484 5483
5551 5549 5548 5547 5546 5545 5544 5542 5540 5539 5537 5535 5533 5531 5530 5528 5526 5524 5522 5520 5517 5514 5510 5510 5509 5507 5505 5502 5499 5497 5494 5491 5489 5486 5484 5482 5480 5477 5475 5473 5471 5469 5468
5543 5542 5541 5540 5538 5536 5534 5532 5531 5529 5527 5525 5523 5520 5518 5517 5514 5512 5510 5508 5505 5502 5498 5497 5497 5495 5492 5489 5487 5484 5481 5479 5476 5474 5471 5469 5466 5463 5461 5459 5457 5455 5453
5536 5534 5532 5531 5530 5527 5525 5523 5521 5520 5517 5515 5512 5509 5507 5506 5503 5501 5498 5496 5494 5491 5488 5485 5483 5481 5478 5476 5474 5471 5468 5466 5463 5460 5457 5455 5452 5449 5447 5444 5442 5439 5437
5527 5526 5524 5522 5520 5518 5516 5514 5512 5510 5508 5506 5503 5499 5496 5494 5491 5489 5487 5484 5482 5479 5476 5472 5470 5468 5465 5463 5460 5458 5455 5453 5450 5447 5444 5441 5438 5435 5432 5430 5426 5424 5421
5519 5516 5515 5513 5511 5508 5506 5504 5502 5500 5498 5495 5493 5489 5486 5484 5481 5478 5475 5472 5469 5465 5462 5458 5456 5453 5451 5449 5445 5442 5441 5439 5436 5433 5430 5427 5424 5421 5418 5415 5412 5408 5405
5509 5506 5504 5502 5500 5498 5496 5494 5492 5489 5487 5484 5481 5479 5476 5473 5470 5467 5464 5460 5456 5452 5448 5445 5442 5440 5437 5434 5430 5428 5426 5424 5422 5418 5416 5413 5410 5407 5403 5400 5396 5392 5389
5497 5495 5494 5492 5490 5488 5486 5484 5481 5478 5476 5473 5470 5467 5464 5461 5458 5456 5453 5449 5445 5441 5436 5433 5430 5427 5425 5421 5418 5415 5410 5408 5407 5405 5401 5400 5395 5392 5389 5385 5381 5377 5373
5485 5483 5482 5480 5478 5476 5475 5472 5470 5467 5464 5461 5458 5455 5452 5449 5446 5443 5440 5437 5434 5430 5427 5423 5419 5417 5414 5410 5406 5402 5397 5394 5393 5390 5385 5386 5381 5378 5375 5371 5366 5362 5359
5474 5472 5470 5469 5467 5465 5462 5460 5457 5454 5451 5449 5446 5444 5440 5437 5434 5431 5428 5424 5421 5418 5415 5412 5409 5407 5403 5398 5394 5390 5386 5383 5382 5377 5370 5367 5367 5364 5362 5358 5352 5348 5345
5463 5461 5459 5458 5455 5453 5451 5448 5445 5442 5439 5437 5435 5432 5429 5426 5423 5420 5416 5412 5409 5407 5403 5401 5398 5394 5391 5386 5381 5377 5372 5367 5367 5365 5357 5351 5351 5349 5349 5346 5341 5336 5332
5451 5449 5447 5446 5444 5441 5439 5437 5433 5430 5427 5425 5423 5421 5419 5416 5412 5409 5404 5401 5398 5396 5392 5389 5386 5382 5378 5374 5369 5364 5359 5354 5351 5350 5347 5339 5336 5331 5333 5334 5329 5325 5320